Warrenton, OR

3:45 PM PDT on August 29, 2016 (GMT -0700)
Astoria Regional

Weather History for KAST - December, 2012

Change the Weather History Date:

Friday, December 14, 2012

  Actual Average Record
Temperature  
Mean Temperature 41 °F 42 °F  
Max Temperature 49 °F 48 °F 62 °F (1962)
Min Temperature 32 °F 36 °F 21 °F (1926)
Degree Days  
Heating Degree Days 24 23  
Month to date heating degree days 268 308  
Since 1 July heating degree days 1673 1721  
Cooling Degree Days 0 0  
Month to date cooling degree days 0 0  
Year to date cooling degree days 25 12  
Moisture  
Dew Point 39 °F    
Average Humidity 83    
Maximum Humidity 100    
Minimum Humidity 66    
Precipitation  
Precipitation 0.29 in 0.31 in 2.49 in (1939)
Month to date precipitation 5.96 4.65  
Year to date precipitation 82.68 62.02  
Snow  
Snow 0.00 in - - ()
Snow Depth 0.00 in    
Sea Level Pressure  
Sea Level Pressure 29.85 in    
Wind  
Wind Speed 3 mph (SE)    
Max Wind Speed 9 mph    
Max Gust Speed -    
Visibility 8 miles    
Events Fog , Rain    
T = Trace of Precipitation, MM = Missing Value Source: NWS Daily Summary

Daily Weather History Graph

Daily Weather History Graph

Search for Another Location

Airport or City:

Trip Planner

Search our weather history database for the weather conditions in past years. The results will help you decide how hot, cold, wet, or windy it might be!

Date:

Astronomy

Dec. 14, 2012 Rise Set
Actual Time 7:50 AM PST 4:30 PM PST
Civil Twilight 7:16 AM PST 5:04 PM PST
Nautical Twilight 6:38 AM PST 5:42 PM PST
Astronomical Twilight 6:01 AM PST 6:19 PM PST
Moon 8:57 AM PST (12/14) 6:33 PM PST (12/14)
Length of Visible Light 9h 48m
Length of Day
8h 39m
Waxing Crescent, 3% of the Moon is Illuminated
Dec 14
Waxing Crescent
Dec 19
First Quarter
Dec 28
Full
Jan 4
Last Quarter
Jan 11
New

Hourly Weather History & Observations

Time (PST) Temp. Windchill Dew Point Humidity Pressure Visibility Wind Dir Wind Speed Gust Speed Precip Events Conditions
12:04 AM 42.8 °F - 41.0 °F 93% 29.81 in 7.0 mi Calm Calm - 0.01 in Rain Light Rain
12:41 AM 42.8 °F 40.1 °F 41.0 °F 93% 29.80 in 8.0 mi SE 4.6 mph - 0.04 in Rain Light Rain
12:48 AM 42.8 °F 40.1 °F 41.0 °F 93% 29.80 in 8.0 mi SE 4.6 mph - 0.04 in Rain Light Rain
12:55 AM 43.0 °F 40.3 °F 41.0 °F 93% 29.80 in 9.0 mi SE 4.6 mph - 0.04 in Rain Light Rain
1:55 AM 43.0 °F 41.3 °F 41.0 °F 93% 29.79 in 6.0 mi SE 3.5 mph - 0.04 in Rain Light Rain
2:44 AM 42.8 °F 38.6 °F 41.0 °F 93% 29.79 in 2.5 mi South 6.9 mph - 0.13 in Rain Rain
2:55 AM 42.8 °F 38.6 °F 39.2 °F 87% 29.79 in 7.0 mi SSE 6.9 mph - N/A Rain Light Rain
3:09 AM 42.8 °F 39.3 °F 41.0 °F 93% 29.78 in 8.0 mi Variable 5.8 mph - 0.00 in Rain Light Rain
3:13 AM 42.8 °F 38.6 °F 41.0 °F 93% 29.79 in 9.0 mi East 6.9 mph - 0.00 in Rain Light Rain
3:55 AM 42.1 °F 39.2 °F 41.0 °F 96% 29.79 in 4.0 mi East 4.6 mph - 0.06 in Rain Light Rain
4:09 AM 42.8 °F - 41.0 °F 93% 29.79 in 10.0 mi Calm Calm - 0.00 in   Overcast
4:55 AM 42.1 °F - 39.9 °F 92% 29.78 in 10.0 mi Calm Calm - 0.00 in   Mostly Cloudy
5:44 AM 42.8 °F - 39.2 °F 87% 29.79 in 10.0 mi Calm Calm - N/A   Overcast
5:52 AM 41.0 °F 39.0 °F 39.2 °F 93% 29.79 in 10.0 mi SSE 3.5 mph - N/A   Overcast
5:55 AM 41.0 °F 39.0 °F 39.9 °F 96% 29.79 in 10.0 mi SSE 3.5 mph - N/A   Mostly Cloudy
6:15 AM 41.0 °F - 39.2 °F 93% 29.80 in 10.0 mi Calm Calm - N/A   Overcast
6:33 AM 42.8 °F - 39.2 °F 87% 29.81 in 10.0 mi Calm Calm - N/A   Overcast
6:50 AM 42.8 °F - 39.2 °F 87% 29.82 in 10.0 mi Calm Calm - N/A   Overcast
6:55 AM 42.1 °F - 39.9 °F 92% 29.82 in 10.0 mi Calm Calm - N/A   Overcast
7:14 AM 41.0 °F - 39.2 °F 93% 29.83 in 10.0 mi Calm Calm - 0.00 in Rain Light Rain
7:43 AM 39.2 °F - 37.4 °F 93% 29.83 in 1.8 mi Calm Calm - 0.00 in   Scattered Clouds
7:47 AM 39.2 °F 37.0 °F 37.4 °F 93% 29.84 in 0.8 mi ESE 3.5 mph - 0.00 in   Mostly Cloudy
7:51 AM 39.2 °F 37.0 °F 37.4 °F 93% 29.84 in 0.2 mi SE 3.5 mph - 0.00 in Fog Fog
7:55 AM 39.0 °F 36.8 °F 37.9 °F 96% 29.84 in 0.2 mi ESE 3.5 mph - 0.00 in Fog Fog
8:34 AM 37.4 °F 34.9 °F 37.4 °F 100% 29.85 in 0.2 mi ESE 3.5 mph - N/A Fog Fog
8:43 AM 37.4 °F 34.9 °F 37.4 °F 100% 29.85 in 0.2 mi ESE 3.5 mph - N/A Fog Fog
8:55 AM 37.9 °F 34.4 °F 37.0 °F 97% 29.85 in 0.8 mi SE 4.6 mph - N/A   Mostly Cloudy
9:03 AM 39.2 °F 37.0 °F 37.4 °F 93% 29.85 in 1.5 mi SSE 3.5 mph - N/A   Mostly Cloudy
9:06 AM 39.2 °F 35.9 °F 37.4 °F 93% 29.86 in 3.0 mi SSE 4.6 mph - N/A   Scattered Clouds
9:55 AM 42.1 °F 40.2 °F 41.0 °F 96% 29.87 in 10.0 mi ESE 3.5 mph - N/A   Mostly Cloudy
10:55 AM 44.1 °F 42.5 °F 41.0 °F 89% 29.88 in 10.0 mi SSE 3.5 mph - N/A   Clear
11:55 AM 48.0 °F - 41.0 °F 77% 29.90 in 10.0 mi NW 3.5 mph - N/A   Clear
12:55 PM 46.9 °F - 39.0 °F 74% 29.91 in 10.0 mi NNW 5.8 mph - N/A   Partly Cloudy
1:55 PM 48.2 °F - 39.2 °F 71% 29.91 in 10.0 mi NNW 6.9 mph - N/A   Clear
2:55 PM 48.0 °F - 37.9 °F 68% 29.92 in 10.0 mi Calm Calm - N/A   Clear
3:55 PM 46.0 °F - 37.0 °F 71% 29.93 in 10.0 mi Calm Calm - N/A   Mostly Cloudy
4:55 PM 39.9 °F - 37.9 °F 93% 29.93 in 10.0 mi Calm Calm - N/A   Scattered Clouds
5:55 PM 39.9 °F 37.8 °F 37.9 °F 93% 29.93 in 10.0 mi SE 3.5 mph - N/A   Mostly Cloudy
6:55 PM 37.0 °F 33.3 °F 36.0 °F 96% 29.94 in 10.0 mi SE 4.6 mph - N/A   Scattered Clouds
7:55 PM 37.0 °F 33.3 °F 36.0 °F 96% 29.94 in 10.0 mi SE 4.6 mph - N/A   Mostly Cloudy
8:55 PM 36.0 °F - 34.0 °F 93% 29.94 in 10.0 mi Calm Calm - N/A   Clear
9:55 PM 36.0 °F 33.3 °F 34.0 °F 93% 29.93 in 10.0 mi SE 3.5 mph - N/A   Clear
10:55 PM 34.0 °F 31.0 °F 33.1 °F 96% 29.91 in 10.0 mi SE 3.5 mph - N/A   Clear
11:55 PM 33.1 °F 30.0 °F 32.0 °F 96% 29.89 in 10.0 mi ESE 3.5 mph - N/A   Clear